FENGYUN 1C DEB

Satellite information

Favourite Embed

Satellite Type and Status

DEBRISIN ORBIT

Key statistics

Satellite FENGYUN 1C DEB at a glance.

Uptime

9715

Days in orbit

Revolutions

≈ 13.6

Per day

Orbit

SSO

Sun Synchronous Orbit

Inclination

101.9

Latest

Satellite identification and parameters

Extended collection of information and parameters for FENGYUN 1C DEB.

Object identification

Identified? True

Debris? True

Object name: FENGYUN 1C DEB

International designator: 1999-025DPZ

Object number (NORAD): 35217

Object ID (CCSDS): 35217

Country: PEOPLES REPUBLIC OF CHINA (PRC)

Current information (Y/N): Y

RCS size: SMALL

Orbital parameters

Period: 106.076 minutes

Inclination: 101.8762 deg

SMA: 7422.88 km

Apoapsis: 1269.245 km

Periapsis: 820.245 km

RAAN: 262.838 deg

Eccentricy: 0.03024432

Argument of periapsis: 294.4123 deg

Mean anomaly: 62.5727 deg

Mean motion: 13.57513235 rev/day

Mean motion (dot): 0.00003218 rev/day2

B* drag term: 0.0033980834 1/REarth

Two-line elements (TLE)

Creation date: Dec. 14, 2025, 3:07 a.m.

Reference frame: TEME

Reference center: EARTH

Epoch: Dec. 13, 2025, 12:23 p.m. UTC

TLE line 0: 0 FENGYUN 1C DEB

TLE line 1: 1 35217U 99025DPZ 25347.51634079 .00003218 00000-0 33981-2 0 9999

TLE line 2: 2 35217 101.8762 262.8380 0302443 294.4123 62.5727 13.57513235612301

Live tracking on map

Real-time ground track for satellite FENGYUN 1C DEB.

In-orbit conjunctions

A list of the most updated potential collisions computed for object FENGYUN 1C DEB.

Target Orbit TCA Probability of collision Miss distance Type
CZ-6A DEB SSO 2025-05-27 10:03:30 0.0001781762 126.0 (m) DEBRIS
COSMOS 2251 DEB LEO 2024-11-08 18:32:00 0.0002300908 446.0 (m) DEBRIS

Associated space launch

Chinese polar orbiting meteorological satellite

FENGYUN 1C DEB was lifted into orbit during the mission ‘Long March 4B | Feng Yun 1C’, on board a Long March 4B space rocket.

The launch took place on May 10, 1999, 1:33 a.m. from Launch Complex 7.

For more information about the launch, click the button.

Launch to space Long March 4B | Feng Yun 1C
Long March 4B | Feng Yun 1C

Agency: N/A

Status: Launch Successful

Launch date: May 10, 1999, 1:33 a.m. UTC

Rocket: Long March 4B

Launch pad: Launch Complex 7

Location: Taiyuan Satellite Launch Center, People's Republic of China

...

Latest news about this satellite

There are no fresh news available about this satellite. Check back as we update our databases every day.


Newsletter sign-up

Weekly statistics, charts and insights to help you stay on top of the space industry.